Location: Feydey
(46.3431°N, 7.0106°E)
Time: 10:57:02
(UTC+00:00)

Cosmos 1328 - Pass Details

Date: 27 October 2021
Orbit: 529 x 551 km, 82.5° (Epoch: 26 November)

Event Time Altitude Azimuth Distance (km) Brightness Sun altitude
Rises 16:56:34 0° 352° (N) 2,737 7.3 -6.1°
Reaches altitude 10° 16:58:46 10° 355° (N) 1,839 6.4 -6.5°
Maximum altitude 17:02:49 73° 80° (E) 583 3.8 -7.2°
Drops below altitude 10° 17:06:49 10° 166° (SSE) 1,823 6.4 -7.9°
Sets 17:08:59 0° 168° (SSE) 2,711 7.3 -8.2°
